Regional Weather Roundup
Issued by NWS

Home | Current Version | Previous Version | Graphics & Text | Print | Product List | Glossary On
Versions: 1 2 3 4 5 6 7 8 9 10 11 12 13 14 15 16 17 18 19 20 21 22 23 24 25 26 27 28 29 30 31 32 33 34 35 36 37 38 39 40 41 42 43 44 45 46 47 48 49 50
000
ASUS43 KMKX 170400
RWRWI

WISCONSIN REGIONAL WEATHER ROUNDUP
NATIONAL WEATHER SERVICE MILWAUKEE/SULLIVAN WI
1100 PM CDT TUE SEP 16 2014

NOTE: "FAIR" INDICATES FEW OR NO CLOUDS BELOW 12,000 FEET WITH NO
SIGNIFICANT WEATHER AND/OR OBSTRUCTIONS TO VISIBILITY.

WIZ001-002-006>008-014>016-023>028-170500-
NORTHWEST WISCONSIN

CITY           SKY/WX    TMP DP  RH WIND       PRES   REMARKS
SUPERIOR ARPT  CLEAR     49  45  86 SW7       29.99S
ASHLAND        CLOUDY    54  44  69 SW8       30.00S
HAYWARD        CLEAR     44  41  89 CALM      30.03S
SIREN          CLEAR     47  45  91 CALM      30.02F
RICE LAKE      CLEAR     45  43  95 CALM      30.05S
LADYSMITH      CLEAR     45  43  93 CALM      30.05S
EAU CLAIRE     NOT AVBL
MENOMONIE      CLEAR     47  45  93 CALM      30.03F
NEW RICHMOND   CLEAR     48  43  84 SE3       30.03S
OSCEOLA        CLEAR     47  47 100 CALM      30.05S
$$

WIZ003>005-009-010-017-018-170500-
NORTH CENTRAL WISCONSIN

CITY           SKY/WX    TMP DP  RH WIND       PRES   REMARKS
WOODRUFF       CLEAR     46  42  86 CALM      30.03S
RHINELANDER    CLEAR     45  42  89 W5        30.04S
EAGLE RIVER    CLEAR     47  41  81 CALM      30.02S
LAND O LAKES   CLOUDY    51  44  78 W3        30.02S
PHILLIPS       CLEAR     45  42  89 CALM      30.03S
TOMAHAWK       CLEAR     43  40  91 CALM      30.04F
MEDFORD        CLEAR     45  42  89 S3        30.05S
MERRILL        MOCLDY    43  42  96 CALM      30.05S
$$

WIZ029-030-035-036-043>047-170500-
CENTRAL WISCONSIN

CITY           SKY/WX    TMP DP  RH WIND       PRES   REMARKS
WAUSAU         CLEAR     48  45  89 CALM      30.04S
MOSINEE        CLEAR     46  45  93 CALM      30.06S
MARSHFIELD     CLEAR     48  44  86 SW3       30.05F
STEVENS POINT  CLEAR     44  42  93 CALM      30.06S
WAUPACA        CLEAR     48  46  91 CALM      30.06S
WAUTOMA        NOT AVBL
WISC RAPIDS    CLEAR     45  43  93 CALM      30.07F
CAMP DOUGLAS   NOT AVBL
$$

WIZ011>013-019>022-031-037>040-048>050-170500-
NORTHEAST WISCONSIN

CITY           SKY/WX    TMP DP  RH WIND       PRES   REMARKS
ANTIGO         CLEAR     47  43  88 W6        30.05S
STURGEON BAY   CLEAR     54  45  71 SW8       30.04S
GREEN BAY      CLEAR     47  45  93 CALM      30.05S
MANITOWOC      NOT AVBL
APPLETON       CLEAR     52  43  71 SW7       30.06S
CLINTONVILLE   CLEAR     50  43  76 W3        30.05S
OSHKOSH        CLEAR     53  44  71 SW3       30.06S
$$

WIZ032>034-041-042-053>061-170500-
SOUTHWEST WISCONSIN

CITY           SKY/WX    TMP DP  RH WIND       PRES   REMARKS
LA CROSSE      CLEAR     51  47  86 SE6       30.05F
SPARTA         CLEAR     42  42  99 CALM      30.07S
VIROQUA        FAIR      51  44  77 S6        30.07S
BOSCOBEL       CLEAR     45  43  93 CALM      30.08F FOG
PRAIRIE DU CHI CLEAR     48  46  91 CALM      30.07S
PLATTEVILLE    FAIR      49  45  84 CALM      30.09S
$$

WIZ056-057-062-063-064-067-068-170500-
SOUTH CENTRAL WISCONSIN

CITY           SKY/WX    TMP DP  RH WIND       PRES   REMARKS
BARABOO/DELLS  CLEAR     46  43  90 S3        30.07S
LONE ROCK      NOT AVBL
WATERTOWN      CLEAR     43  42  97 CALM      30.07F
MADISON        CLEAR     46  44  93 CALM      30.08F
MIDDLETON      FAIR      45  45  99 CALM      30.08F
MONROE         CLEAR     54  43  66 CALM      30.08F
JANESVILLE     CLEAR     48  43  81 CALM      30.08F
$$

WIZ051-052-058>065-066-070>072-170500-
SOUTHEAST WISCONSIN

CITY           SKY/WX    TMP DP  RH WIND       PRES   REMARKS
MILWAUKEE      CLEAR     52  44  74 S6        30.09S
WAUKESHA       CLEAR     43  41  93 CALM      30.10S
MILWAUKEE/TIMM CLEAR     48  43  81 S5        30.09S
RACINE         CLEAR     50  44  80 SW5       30.11R
BURLINGTON     CLEAR     40  39  99 CALM      30.09S
KENOSHA        CLEAR     47  45  93 CALM      30.10R
FOND DU LAC    CLEAR     47  42  83 SW5       30.07S
SHEBOYGAN      CLEAR     47  43  86 SW3       30.07S
WEST BEND      CLEAR     43  41  93 CALM      30.07F
JUNEAU         CLEAR     47  44  88 CALM      30.08F
$$

LSZ147-162-170500-
LAKE SUPERIOR

STATION/POSITION TIME  TEMP    WIND        PRES    WAVE
                       AIR SEA DIR/SP/G            HT/PER
                 (UTC) (F)     (DEG/KT/KT) (MB)    (FT/S)
W MID LAKE BUOY  0250   49 47   70/ 12/ 12 1015.5R   2/ 5
DEVILS ISLAND    0300   58     230/ 15/ 16 1014.7F
PORT WING        0300   57     190/  7/  9 1015.2S
SAXON HARBOR     0300   57     200/  4/  8 1015.6S
$$

LMZ867-665-643>646-170500-
LAKE MICHIGAN

STATION/POSITION TIME  TEMP    WIND        PRES    WAVE
                       AIR SEA DIR/SP/G            HT/PER
                 (UTC) (F)     (DEG/KT/KT) (MB)    (FT/S)
N MID LAKE BUOY  0250   59 59  230/ 16/ 19 1015.6F   3/ 4
NORTHPORT PIER   0300   58     230/  5/  9 1015.9F
KEWAUNEE LAKESHO 0300   55     240/  5/  9 1016.5F
SHEBOYGAN LAKESH 0300   53 49  220/  5/  5 1018.6F
PORT WASHINGTON  0300   51     250/  3/  4 1019.0F
ATWATER BUOY     0300   57     200/  8/ 10 1019.6F
MILWAUKEE LAKESH 0300   56     230/  5/  6   N/A
S MID LAKE BUOY  0250   59 64  190/  6/  6 1019.3F   1
KENOSHA   LAKESH 0300   57     190/  7/  7 1018.6F
$$

TC  - TEMPERATURE IN CELSIUS
VSB - VISIBILITY IN STATUTE MILES
WCI - WIND CHILL INDEX
HX  - HEAT INDEX




USA.gov is the U.S. government's official web portal to all federal, state and local government web resources and services.